Home   Weather   Rheinfelden (Baden)   Past weeks

Flag for Germany Past Weather in Rheinfelden (Baden), Baden-Württemberg, Germany — Yesterday and Last 2 Weeks

Now
32 °F

Ice fog.


Feels Like: 32 °F
Forecast: 20 / 37 °F
Wind: No wind

Location: Bale-Mulhouse

Current Time: Dec 3, 2016 at 8:53:21 pm

Latest Report: Dec 3, 2016 at 8:00 pm


Visibility: 0 mi

Pressure: 30.18 "Hg

Humidity: 100%

Dew Point: 32 °F

Location of Rheinfelden (Baden)Location

Past Weather in Rheinfelden (Baden) — Graph

°F

Rheinfelden (Baden) Temperature Yesterday

Maximum temperature yesterday: 45 °F (at 2:00 pm)
Minimum temperature yesterday: 25 °F (at 3:00 am)
Average temperature yesterday: 32 °F

High & Low Weather Summary for the Past Weeks

 TemperatureHumidityPressure
High64 °F (Nov 20, 3:00 pm)100% (Nov 19, 4:00 am)30.57 "Hg (Nov 19, 4:00 am)
Low21 °F (Nov 29, 4:00 am)37% (Nov 20, 3:00 pm)29.59 "Hg (Nov 21, 11:30 am)
Average40 °F86%30.05 "Hg
* Reported Nov 18 7:00 pm — Dec 3 7:30 pm, Rheinfelden (Baden), Weather by CustomWeather, © 2016

Note: Actual official high and low records may vary slightly from our data, if they occured in-between our weather recording intervals... More about our weather records

Advertising

Rheinfelden (Baden) Weather History for the Previous 24 Hours

Scroll right to see more
 ConditionsComfort  
Time TempWeatherWind HumidityBarometerVisibility
7:30 pm
Sat, Dec 3
32 °FIce fog.1 mph100%30.18 "Hg0 mi
7:00 pm30 °FIce fog.No wind100%30.18 "Hg1 mi
6:30 pm30 °FSnow. Overcast.2 mph93%30.18 "Hg2 mi
6:00 pm30 °FIce fog.2 mph100%30.18 "Hg2 mi
5:30 pm32 °FIce fog.2 mph93%30.18 "Hg2 mi
5:00 pm32 °FIce fog.2 mph93%30.15 "Hg2 mi
4:30 pm34 °FFog.3 mph93%30.15 "Hg3 mi
4:00 pm36 °FScattered clouds.5 mph93%30.15 "Hg3 mi
3:30 pm36 °FBroken clouds.5 mph93%30.12 "Hg3 mi
3:00 pm36 °FFog.3 mph93%30.12 "Hg3 mi
2:30 pm36 °FFog.7 mph93%30.12 "Hg2 mi
2:00 pm36 °FFog.6 mph93%30.12 "Hg1 mi
1:30 pm36 °FFog.7 mph93%30.12 "Hg2 mi
1:00 pm36 °FFog.7 mph93%30.12 "Hg2 mi
12:30 pm36 °FFog.8 mph100%30.12 "Hg1 mi
12:00 pm36 °FFog.7 mph100%30.15 "Hg1 mi
11:30 am36 °FFog.8 mph100%30.15 "Hg1 mi
11:00 am36 °FFog.8 mph100%30.15 "Hg1 mi
10:30 am36 °FFog.7 mph100%30.15 "Hg1 mi
10:00 am36 °FFog.7 mph100%30.15 "Hg1 mi
9:30 am36 °FFog.7 mph100%30.12 "Hg1 mi
9:00 am34 °FFog.5 mph100%30.12 "Hg1 mi
8:30 am34 °FFog.5 mph100%30.12 "Hg1 mi
8:00 am34 °FFog.1 mph100%30.12 "Hg1 mi
7:30 am34 °FFog.5 mph100%30.12 "Hg1 mi
7:00 am32 °FIce fog.3 mph100%30.12 "Hg1 mi
6:30 am32 °FIce fog.5 mph100%30.09 "Hg1 mi
6:00 am32 °FIce fog.5 mph100%30.09 "Hg1 mi
5:30 am32 °FIce fog.1 mph100%30.09 "Hg1 mi
5:00 am32 °FFog.2 mph100%30.09 "Hg1 mi
4:30 am32 °FFog.2 mph100%30.12 "Hg1 mi
4:00 am32 °FIce fog.2 mph100%30.12 "Hg1 mi
3:30 am32 °FIce fog.5 mph100%30.12 "Hg1 mi
3:00 am32 °FIce fog.3 mph100%30.12 "Hg1 mi
2:30 am30 °FIce fog.3 mph100%30.12 "Hg2 mi
2:00 am28 °FIce fog.5 mph100%30.12 "Hg3 mi
1:30 am28 °FIce fog.2 mph100%30.12 "Hg3 mi
1:00 am30 °FIce fog.2 mph93%30.12 "Hg3 mi
12:30 am28 °FIce fog.1 mph100%30.12 "Hg3 mi
12:00 am28 °FIce fog.2 mph93%30.12 "Hg2 mi
11:30 pm
Fri, Dec 2
28 °FIce fog.2 mph93%30.12 "Hg2 mi
11:00 pm28 °FIce fog.1 mph100%30.12 "Hg2 mi
10:30 pm28 °FIce fog.1 mph93%30.12 "Hg2 mi
10:00 pm30 °FIce fog.1 mph93%30.12 "Hg3 mi
9:30 pm30 °FIce fog.2 mph93%30.15 "Hg3 mi
9:00 pm34 °FPassing clouds.3 mph87%30.15 "Hg4 mi
8:30 pm34 °FPassing clouds.3 mph93%30.15 "Hg4 mi
8:00 pm34 °FPassing clouds.7 mph93%30.15 "Hg4 mi
Weather by CustomWeather, © 2016

See weather overviewHow to use our weather pages